When you browse on this site, cookies collect data to enhance your experience and personalize the content and advertising you see.
Visit our Privacy Policy to learn more. By continuing to use the site, you agree to this use of cookies and data.
  • In Netherlands
  • List of Countries
  • For 7 days
  • Water Temperature
  • Weather Map
  • Weather Widgets
  • user-avatar
    Login

    Hourly Weather Pernik

    Today, 20 September, Friday

    Time Temperature Precipitation Wind Pressure Humidity
    00:00 +9°C° 1.2 mm 2 mps 694 mmHg 83%
    01:00 +8°C° 1.2 mm 2 mps 694 mmHg 86%
    02:00 +8°C° 1.2 mm 2 mps 694 mmHg 90%
    03:00 +8°C° 0.4 mm 2 mps 694 mmHg 88%
    04:00 +9°C° 0.4 mm 1 mps 694 mmHg 86%
    05:00 +9°C° 0.4 mm 1 mps 694 mmHg 84%
    06:00 +8°C° 0 mm 2 mps 694 mmHg 79%
    07:00 +8°C° 0 mm 2 mps 694 mmHg 75%
    08:00 +8°C° 0 mm 2 mps 694 mmHg 70%
    09:00 +10°C° 0 mm 3 mps 695 mmHg 59%
    10:00 +12°C° 0 mm 3 mps 695 mmHg 47%
    11:00 +13°C° 0 mm 4 mps 695 mmHg 36%
    12:00 +14°C° 0 mm 4 mps 695 mmHg 32%
    13:00 +15°C° 0 mm 4 mps 695 mmHg 29%
    14:00 +17°C° 0 mm 4 mps 695 mmHg 25%
    15:00 +17°C° 0 mm 4 mps 695 mmHg 25%
    16:00 +17°C° 0 mm 4 mps 695 mmHg 26%
    17:00 +15°C° 0 mm 4 mps 695 mmHg 26%
    18:00 +13°C° 0 mm 3 mps 695 mmHg 32%
    19:00 +12°C° 0 mm 2 mps 695 mmHg 37%
    20:00 +9°C° 0 mm 1 mps 695 mmHg 43%
    21:00 +9°C° 0 mm 1 mps 695 mmHg 45%
    22:00 +8°C° 0 mm 1 mps 695 mmHg 48%
    23:00 +8°C° 0 mm 1 mps 695 mmHg 51%

    Tomorrow, 21 September, Saturday

    Time Temperature Precipitation Wind Pressure Humidity
    00:00 +7°C° 0 mm 1 mps 695 mmHg 52%
    01:00 +7°C° 0 mm 1 mps 695 mmHg 53%
    02:00 +6°C° 0 mm 1 mps 696 mmHg 55%
    03:00 +6°C° 0 mm 1 mps 696 mmHg 55%
    04:00 +6°C° 0 mm 1 mps 696 mmHg 56%
    05:00 +5°C° 0 mm 1 mps 696 mmHg 57%
    06:00 +6°C° 0 mm 0 mps 696 mmHg 52%
    07:00 +7°C° 0 mm 0 mps 696 mmHg 47%
    08:00 +9°C° 0 mm 0 mps 697 mmHg 42%
    09:00 +11°C° 0 mm 0 mps 697 mmHg 36%
    10:00 +14°C° 0 mm 1 mps 698 mmHg 30%
    11:00 +18°C° 0 mm 1 mps 698 mmHg 24%
    12:00 +19°C° 0 mm 1 mps 698 mmHg 22%
    13:00 +20°C° 0 mm 1 mps 697 mmHg 20%
    14:00 +21°C° 0 mm 1 mps 697 mmHg 19%
    15:00 +20°C° 0 mm 1 mps 697 mmHg 19%
    16:00 +20°C° 0 mm 1 mps 697 mmHg 20%
    17:00 +20°C° 0 mm 1 mps 696 mmHg 21%
    18:00 +16°C° 0 mm 1 mps 696 mmHg 25%
    19:00 +14°C° 0 mm 1 mps 696 mmHg 30%
    20:00 +11°C° 0 mm 1 mps 695 mmHg 34%
    21:00 +11°C° 0 mm 1 mps 695 mmHg 36%
    22:00 +10°C° 0 mm 1 mps 695 mmHg 38%
    23:00 +8°C° 0 mm 0 mps 695 mmHg 39%

    Day after tomorrow, 22 September, Sunday

    Time Temperature Precipitation Wind Pressure Humidity
    00:00 +8°C° 0 mm 0 mps 695 mmHg 41%
    01:00 +8°C° 0 mm 0 mps 695 mmHg 42%
    02:00 +7°C° 0 mm 0 mps 695 mmHg 44%
    03:00 +7°C° 0 mm 0 mps 695 mmHg 45%
    04:00 +7°C° 0 mm 0 mps 695 mmHg 47%
    05:00 +7°C° 0 mm 1 mps 694 mmHg 48%
    06:00 +9°C° 0 mm 1 mps 695 mmHg 46%
    07:00 +10°C° 0 mm 1 mps 695 mmHg 44%
    08:00 +12°C° 0 mm 1 mps 695 mmHg 41%
    09:00 +14°C° 0 mm 1 mps 696 mmHg 36%
    10:00 +18°C° 0 mm 1 mps 696 mmHg 32%
    11:00 +21°C° 0 mm 1 mps 696 mmHg 27%
    12:00 +22°C° 0 mm 1 mps 696 mmHg 25%
    13:00 +23°C° 0 mm 1 mps 695 mmHg 23%
    14:00 +24°C° 0 mm 1 mps 695 mmHg 21%
    15:00 +24°C° 0 mm 1 mps 695 mmHg 22%
    16:00 +24°C° 0 mm 1 mps 694 mmHg 23%
    17:00 +23°C° 0 mm 1 mps 694 mmHg 24%
    18:00 +21°C° 0 mm 1 mps 693 mmHg 30%
    19:00 +18°C° 0 mm 1 mps 693 mmHg 35%
    20:00 +14°C° 0 mm 1 mps 693 mmHg 41%
    21:00 +14°C° 0 mm 1 mps 693 mmHg 44%
    22:00 +13°C° 0 mm 1 mps 693 mmHg 47%
    23:00 +12°C° 0 mm 1 mps 692 mmHg 50%

    23 September, Monday

    Time Temperature Precipitation Wind Pressure Humidity
    00:00 +12°C° 0 mm 1 mps 692 mmHg 53%
    01:00 +11°C° 0 mm 1 mps 692 mmHg 55%
    02:00 +11°C° 0 mm 1 mps 692 mmHg 58%
    03:00 +11°C° 0 mm 1 mps 692 mmHg 59%
    04:00 +10°C° 0 mm 1 mps 692 mmHg 61%
    05:00 +10°C° 0 mm 1 mps 691 mmHg 63%
    06:00 +11°C° 0 mm 1 mps 691 mmHg 60%
    07:00 +13°C° 0 mm 1 mps 691 mmHg 56%
    08:00 +14°C° 0 mm 1 mps 692 mmHg 53%
    09:00 +18°C° 0 mm 1 mps 692 mmHg 48%
    10:00 +19°C° 0 mm 2 mps 692 mmHg 42%
    11:00 +23°C° 0 mm 2 mps 693 mmHg 37%
    12:00 +23°C° 0 mm 2 mps 692 mmHg 37%
    13:00 +23°C° 0 mm 2 mps 692 mmHg 38%
    14:00 +23°C° 0 mm 2 mps 691 mmHg 38%
    15:00 +21°C° 0 mm 2 mps 691 mmHg 44%
    16:00 +19°C° 0 mm 2 mps 690 mmHg 50%
    17:00 +18°C° 0 mm 2 mps 690 mmHg 56%
    18:00 +17°C° 0 mm 2 mps 690 mmHg 61%
    19:00 +16°C° 0 mm 2 mps 689 mmHg 66%
    20:00 +14°C° 0 mm 1 mps 689 mmHg 72%
    21:00 +14°C° 0 mm 1 mps 689 mmHg 72%
    22:00 +14°C° 0 mm 1 mps 688 mmHg 73%
    23:00 +14°C° 0 mm 1 mps 688 mmHg 73%

    24 September, Tuesday

    Time Temperature Precipitation Wind Pressure Humidity
    00:00 +14°C° 0 mm 1 mps 688 mmHg 72%
    01:00 +14°C° 0 mm 1 mps 688 mmHg 71%
    02:00 +15°C° 0 mm 1 mps 687 mmHg 70%
    03:00 +14°C° 0.1 mm 1 mps 687 mmHg 73%
    04:00 +14°C° 0.1 mm 1 mps 687 mmHg 75%
    05:00 +13°C° 0.1 mm 1 mps 686 mmHg 78%
    06:00 +14°C° 0.2 mm 1 mps 686 mmHg 76%
    07:00 +15°C° 0.2 mm 1 mps 686 mmHg 75%
    08:00 +15°C° 0.2 mm 1 mps 686 mmHg 73%
    09:00 +18°C° 0.2 mm 1 mps 687 mmHg 70%
    10:00 +19°C° 0.2 mm 1 mps 687 mmHg 66%
    11:00 +20°C° 0.2 mm 2 mps 687 mmHg 63%
    12:00 +20°C° 0.8 mm 2 mps 687 mmHg 60%
    13:00 +21°C° 0.8 mm 2 mps 687 mmHg 56%
    14:00 +23°C° 0.8 mm 2 mps 687 mmHg 53%
    15:00 +21°C° 1.2 mm 2 mps 686 mmHg 59%
    16:00 +20°C° 1.2 mm 2 mps 686 mmHg 64%
    17:00 +19°C° 1.2 mm 2 mps 686 mmHg 70%
    18:00 +17°C° 0.8 mm 2 mps 686 mmHg 76%
    19:00 +16°C° 0.8 mm 2 mps 686 mmHg 83%
    20:00 +14°C° 0.8 mm 2 mps 687 mmHg 89%
    21:00 +14°C° 0.3 mm 2 mps 687 mmHg 90%
    22:00 +14°C° 0.3 mm 2 mps 687 mmHg 90%
    23:00 +14°C° 0.3 mm 2 mps 687 mmHg 91%

    25 September, Wednesday

    Time Temperature Precipitation Wind Pressure Humidity
    00:00 +13°C° 0.1 mm 2 mps 687 mmHg 91%
    01:00 +12°C° 0.1 mm 2 mps 687 mmHg 91%
    02:00 +12°C° 0.1 mm 2 mps 687 mmHg 91%
    03:00 +10°C° 0 mm 2 mps 687 mmHg 92%
    04:00 +11°C° 0 mm 1 mps 687 mmHg 93%
    05:00 +11°C° 0 mm 1 mps 687 mmHg 93%
    06:00 +10°C° 0 mm 2 mps 687 mmHg 91%
    07:00 +12°C° 0 mm 2 mps 688 mmHg 89%
    08:00 +12°C° 0 mm 2 mps 688 mmHg 87%
    09:00 +14°C° 0 mm 2 mps 688 mmHg 80%
    10:00 +16°C° 0 mm 2 mps 689 mmHg 73%
    11:00 +17°C° 0 mm 2 mps 689 mmHg 66%
    12:00 +18°C° 0 mm 2 mps 689 mmHg 61%
    13:00 +19°C° 0 mm 2 mps 689 mmHg 56%
    14:00 +20°C° 0 mm 2 mps 689 mmHg 51%
    15:00 +20°C° 0 mm 2 mps 689 mmHg 53%
    16:00 +20°C° 0 mm 2 mps 689 mmHg 54%
    17:00 +20°C° 0 mm 3 mps 689 mmHg 56%
    18:00 +18°C° 0 mm 2 mps 689 mmHg 65%
    19:00 +16°C° 0 mm 2 mps 689 mmHg 73%
    20:00 +14°C° 0 mm 1 mps 689 mmHg 82%
    21:00 +14°C° 0 mm 1 mps 689 mmHg 83%
    22:00 +13°C° 0 mm 1 mps 689 mmHg 85%
    23:00 +12°C° 0 mm 0 mps 689 mmHg 87%
    Show more